Regional Weather Roundup
Issued by NWS Memphis, TN

Home | Current Version | Previous Version | Text Only | Print | Product List | Glossary On
Versions: 1 2 3 4 5 6 7 8 9 10 11 12 13 14 15 16 17 18 19 20 21 22 23 24 25 26 27 28 29 30 31 32 33 34 35 36 37 38 39 40 41 42 43 44 45 46 47 48 49 50
000
ASUS44 KMEG 050510
RWRMEG
MEMPHIS CWA HOURLY WEATHER ROUNDUP
NATIONAL WEATHER SERVICE MEMPHIS TN
1200 AM CDT WED AUG 05 2015

...WEST TENNESSEE...

CITY           SKY/WX    TMP DP  RH WIND       PRES   REMARKS
MEMPHIS INTL   CLOUDY    88  68  51 CALM      29.99S HX  91
NWS MEMPHIS      N/A     79 N/A N/A MISG        N/A
JACKSON        CLOUDY    79  75  87 SW5       30.00S
LEXINGTON      CLEAR     77  77 100 CALM      30.01S
DYERSBURG        N/A    N/A N/A N/A MISG        N/A
UNION CITY     CLEAR     77  77 100 CALM      29.99S
PARIS          CLEAR     77  73  88 NE5       30.03R


...EASTERN ARKANSAS...

CITY           SKY/WX    TMP DP  RH WIND       PRES   REMARKS
JONESBORO      CLOUDY    79  75  87 CALM      29.98R
WEST MEMPHIS     N/A     82  75  79 CALM      29.97S
BATESVILLE     CLOUDY    79  73  83 N3        29.99S
NEWPORT        CLOUDY    82  77  85 S3        29.99R HX  90
WALNUT RIDGE   CLOUDY    82  73  74 S6        29.98S
BLYTHEVILLE    CLOUDY    81  77  88 CALM      29.99R
SEARCY         CLOUDY    80  72  76 CALM      29.99S
STUTTGART      CLOUDY    84  72  65 SE6       29.97F
PINE BLUFF     CLOUDY    81  76  84 CALM      29.97R
MONTICELLO     CLOUDY    84  74  71 SE3       29.97S HX  91


...NORTH MISSISSIPPI...

CITY           SKY/WX    TMP DP  RH WIND       PRES   REMARKS
TUPELO         CLEAR     80  74  81 CALM      29.99S
OLIVE BRANCH     N/A     81  72  74 CALM      30.00S
TUNICA         CLOUDY    81  72  74 CALM      29.99S
CLARKSDALE     CLOUDY    82  75  78 CALM      29.99S
CORINTH          N/A     77  73  88 CALM      30.00S
GREENWOOD      CLEAR     76  71  85 N3        29.97S
COLUMBUS       CLEAR     77  72  85 SE2       29.99R
STARKVILLE     FAIR      73  70  88 CALM      30.00R
GOLDEN TRIANGL CLEAR     77  68  73 S3        29.99S


...SOUTHEAST MISSOURI...

CITY           SKY/WX    TMP DP  RH WIND       PRES   REMARKS
WEST PLAINS    LGT RAIN  73  64  73 S8        30.06F
POPLAR BLUFF   CLOUDY    80  77  90 CALM      29.98R
CAPE GIRARDEAU CLOUDY    77  70  79 E5        29.98S


...NORTHWEST ALABAMA...

CITY           SKY/WX    TMP DP  RH WIND       PRES   REMARKS
MUSCLE SHOALS  MOCLDY    78  72  81 CALM      30.03R


...MIDDLE TENNESSEE...

CITY           SKY/WX    TMP DP  RH WIND       PRES   REMARKS
NASHVILLE      CLOUDY    81  71  71 NE7       30.02F
CLARKSVILLE    CLOUDY    73  68  84 CALM      30.02S
COLUMBIA       CLEAR     77  77 100 CALM      30.02R


...WESTERN KENTUCKY...

CITY           SKY/WX    TMP DP  RH WIND       PRES   REMARKS
PADUCAH        CLOUDY    75  70  84 SE5       29.99S
FORT CAMPBELL  CLOUDY    74  67  76 E2        30.02S


...CENTRAL ARKANSAS...

CITY           SKY/WX    TMP DP  RH WIND       PRES   REMARKS
LITTLE ROCK    CLOUDY    83  70  64 CALM      29.97S


SKY/WX REPORTED AS FAIR MEANS FEW OR NO CLOUDS BELOW
12 THOUSAND FEET.




USA.gov is the U.S. government's official web portal to all federal, state and local government web resources and services.